This is the latest recevied weather packets stored in our database for station/object KI4MRC. If no packets are shown the sender has not sent any weather packets the latest 10 day(s).
| Time | Temp. | Humidity | Pressure | Rain* | Wind** | Luminosity | Snow |
|---|---|---|---|---|---|---|---|
| 1777477596 | 31.11° C | 50% | 1016.9 hPa | 0 mm | - | 943 W/m² | - |
| 1777477292 | 30° C | 58% | 1017 hPa | 0 mm | - | 953 W/m² | - |
| 1777476989 | 29.44° C | 55% | 1017 hPa | 0 mm | - | 953 W/m² | - |
| 1777476687 | 28.89° C | 58% | 1017 hPa | 0 mm | - | 329 W/m² | - |
| 1777476383 | 29.44° C | 57% | 1017.1 hPa | 0 mm | - | 931 W/m² | - |
| 1777476081 | 28.89° C | 60% | 1017.3 hPa | 0 mm | - | 775 W/m² | - |
| 1777475781 | 27.78° C | 64% | 1017.2 hPa | 0 mm | - | 923 W/m² | - |
| 1777475478 | 27.78° C | 62% | 1017.4 hPa | 0 mm | - | 122 W/m² | - |
| 1777475174 | 28.33° C | 61% | 1017.2 hPa | 0 mm | - | 163 W/m² | - |
| 1777474870 | 29.44° C | 59% | 1017.3 hPa | 0 mm | - | 245 W/m² | - |
| 1777474565 | 30.56° C | 56% | 1017.3 hPa | 0 mm | - | 208 W/m² | - |
| 1777474262 | 30.56° C | 58% | 1017.1 hPa | 0 mm | - | 860 W/m² | - |
| 1777473959 | 30° C | 57% | 1017.1 hPa | 0 mm | - | 827 W/m² | - |
| 1777473657 | 29.44° C | 61% | 1016.8 hPa | 0 mm | - | 724 W/m² | - |
| 1777473353 | 29.44° C | 59% | 1017 hPa | 0 mm | - | 287 W/m² | - |
| 1777473049 | 29.44° C | 60% | 1017.2 hPa | 0 mm | - | 631 W/m² | - |
| 1777472745 | 30.56° C | 57% | 1017.1 hPa | 0 mm | - | 742 W/m² | - |
| 1777472442 | 29.44° C | 60% | 1016.9 hPa | 0 mm | - | 759 W/m² | - |
| 1777472140 | 29.44° C | 63% | 1017 hPa | 0 mm | - | 742 W/m² | - |
| 1777471839 | 28.89° C | 62% | 1017 hPa | 0 mm | - | 648 W/m² | - |
| 1777471536 | 28.33° C | 66% | 1016.9 hPa | 0 mm | - | 512 W/m² | - |
| 1777471233 | 28.33° C | 66% | 1017 hPa | 0 mm | - | 281 W/m² | - |
| 1777470930 | 27.78° C | 72% | 1016.9 hPa | 0 mm | - | 755 W/m² | - |
| 1777470627 | 27.22° C | 74% | 1016.9 hPa | 0 mm | - | 156 W/m² | - |
| 1777470323 | 26.67° C | 71% | 1016.9 hPa | 0 mm | - | 102 W/m² | - |
* Rain latest hour (hover to see other rain measurements)
** Current wind speed in m/s (hover to see current wind gust speed)